Time,TemperatureF,DewpointF,PressureIn,WindDirection,WindDirectionDegrees,WindSpeedMPH,WindSpeedGustMPH,Humidity,HourlyPrecipIn,Conditions,Clouds,dailyrainin,SoftwareType,DateUTC
2013-08-22 00:00:00,71.8,62.5,30.05,SW,236,2.6,5.3,72,0.00,,SCT,0.00,VWS V14.00,2013-08-22 04:00:00,
2013-08-22 00:02:00,70.3,62.4,30.05,WSW,253,0.7,4.4,76,0.00,,SKC,0.00,VWS V14.00,2013-08-22 04:02:00,
2013-08-22 00:03:00,62.9,61.6,30.01,WSW,248,0.0,0.0,96,0.00,,OVC,0.00,VWS V14.00,2013-08-22 04:03:00,
2013-08-22 00:07:00,70.1,62.3,30.05,SSW,193,0.8,4.4,76,0.00,,SKC,0.00,VWS V14.00,2013-08-22 04:07:00,
2013-08-22 00:12:00,70.1,62.3,30.05,SE,136,0.0,4.4,76,0.00,,SKC,0.00,VWS V14.00,2013-08-22 04:12:00,
2013-08-22 00:18:00,69.9,62.2,30.05,SSW,202,0.0,4.4,76,0.00,,SKC,0.00,VWS V14.00,2013-08-22 04:18:00,
2013-08-22 00:23:00,69.8,62.1,30.05,SSE,163,0.0,4.4,77,0.00,,SKC,0.00,VWS V14.00,2013-08-22 04:23:00,
2013-08-22 00:25:00,69.7,62.1,30.05,SSW,202,2.4,4.4,77,0.00,,SKC,0.00,VWS V14.00,2013-08-22 04:25:00,
2013-08-22 00:30:00,71.0,62.3,30.05,SW,229,1.0,5.0,74,0.00,,SCT,0.00,VWS V14.00,2013-08-22 04:30:00,
2013-08-22 00:33:00,69.6,62.1,30.05,SW,229,1.4,2.5,77,0.00,,SKC,0.00,VWS V14.00,2013-08-22 04:33:00,
2013-08-22 00:38:00,69.6,62.1,30.05,SSE,153,1.6,3.5,77,0.00,,SKC,0.00,VWS V14.00,2013-08-22 04:38:00,
2013-08-22 00:43:00,69.5,62.1,30.05,SW,214,0.0,3.5,77,0.00,,SKC,0.00,VWS V14.00,2013-08-22 04:43:00,
2013-08-22 00:48:00,69.5,62.2,30.05,SW,225,2.2,3.5,78,0.00,,SKC,0.00,VWS V14.00,2013-08-22 04:48:00,
2013-08-22 00:53:00,69.4,62.1,30.05,SSE,158,2.2,3.5,78,0.00,,SKC,0.00,VWS V14.00,2013-08-22 04:53:00,
2013-08-22 00:58:00,69.4,62.1,30.05,SSW,195,2.7,5.1,78,0.00,,SKC,0.00,VWS V14.00,2013-08-22 04:58:00,
2013-08-22 01:03:00,69.5,62.1,30.05,South,186,2.4,5.2,77,0.00,,SKC,0.00,VWS V14.00,2013-08-22 05:03:00,
2013-08-22 01:08:00,69.4,61.9,30.04,SW,229,1.9,5.2,77,0.00,,SKC,0.00,VWS V14.00,2013-08-22 05:08:00,
2013-08-22 01:13:00,69.4,61.9,30.04,SW,226,1.7,5.2,77,0.00,,SKC,0.00,VWS V14.00,2013-08-22 05:13:00,
2013-08-22 01:18:00,69.5,62.0,30.04,SSW,200,2.4,5.2,77,0.00,,SKC,0.00,VWS V14.00,2013-08-22 05:18:00,
2013-08-22 01:23:00,69.5,61.8,30.04,WSW,249,1.9,8.0,76,0.00,,SKC,0.00,VWS V14.00,2013-08-22 05:23:00,
2013-08-22 01:28:00,69.7,61.6,30.04,SW,228,2.3,7.0,76,0.00,,SKC,0.00,VWS V14.00,2013-08-22 05:28:00,
2013-08-22 01:30:00,69.7,62.1,30.05,SSW,202,2.4,4.4,77,0.00,,SCT,0.00,VWS V14.00,2013-08-22 05:30:00,
2013-08-22 01:33:00,69.9,61.6,30.04,SW,217,2.2,7.0,75,0.00,,SKC,0.00,VWS V14.00,2013-08-22 05:33:00,
2013-08-22 01:38:00,70.2,61.7,30.04,SW,217,3.2,7.0,74,0.00,,SKC,0.00,VWS V14.00,2013-08-22 05:38:00,
2013-08-22 01:43:00,70.3,61.6,30.04,WSW,245,2.0,7.0,74,0.00,,SKC,0.00,VWS V14.00,2013-08-22 05:43:00,
2013-08-22 01:48:00,70.4,61.5,30.04,SW,218,2.4,7.0,73,0.00,,SKC,0.00,VWS V14.00,2013-08-22 05:48:00,
2013-08-22 01:53:00,70.5,61.4,30.03,SW,232,3.4,7.0,73,0.00,,SKC,0.00,VWS V14.00,2013-08-22 05:53:00,
2013-08-22 01:58:00,70.6,61.3,30.03,West,263,2.8,4.8,72,0.00,,SKC,0.00,VWS V14.00,2013-08-22 05:58:00,
2013-08-22 02:00:00,69.4,62.1,30.05,South,186,2.4,4.0,78,0.00,,SCT,0.00,VWS V14.00,2013-08-22 06:00:00,
2013-08-22 02:03:00,70.8,61.4,30.03,WSW,245,2.0,8.0,72,0.00,,SKC,0.00,VWS V14.00,2013-08-22 06:03:00,
2013-08-22 02:08:00,70.7,61.3,30.03,SW,225,3.4,8.0,72,0.00,,SKC,0.00,VWS V14.00,2013-08-22 06:08:00,
2013-08-22 02:13:00,70.5,61.2,30.03,WSW,252,2.2,8.0,72,0.00,,SKC,0.00,VWS V14.00,2013-08-22 06:13:00,
2013-08-22 02:18:00,70.5,61.2,30.03,SW,222,2.6,8.0,72,0.00,,SKC,0.00,VWS V14.00,2013-08-22 06:18:00,
2013-08-22 02:23:00,70.6,61.3,30.03,SW,222,2.1,8.0,72,0.00,,SKC,0.00,VWS V14.00,2013-08-22 06:23:00,
2013-08-22 02:28:00,70.7,61.2,30.03,SSW,210,2.6,5.2,72,0.00,,SKC,0.00,VWS V14.00,2013-08-22 06:28:00,
2013-08-22 02:30:00,69.6,61.8,30.04,SSW,208,1.9,8.0,76,0.00,,SCT,0.00,VWS V14.00,2013-08-22 06:30:00,
2013-08-22 02:33:00,70.7,61.0,30.03,SW,225,3.7,7.6,72,0.00,,SKC,0.00,VWS V14.00,2013-08-22 06:33:00,
2013-08-22 02:38:00,70.8,61.0,30.03,WSW,252,3.4,7.9,71,0.00,,SKC,0.00,VWS V14.00,2013-08-22 06:38:00,
2013-08-22 02:43:00,70.8,61.0,30.03,WSW,248,2.9,7.9,71,0.00,,SKC,0.00,VWS V14.00,2013-08-22 06:43:00,
2013-08-22 02:48:00,70.8,60.9,30.02,SW,219,2.4,7.9,71,0.00,,SKC,0.00,VWS V14.00,2013-08-22 06:48:00,
2013-08-22 02:53:00,70.8,60.9,30.02,SSW,210,3.1,7.9,71,0.00,,SKC,0.00,VWS V14.00,2013-08-22 06:53:00,
2013-08-22 02:58:00,70.8,60.9,30.02,SSE,152,3.4,6.6,71,0.00,,SKC,0.00,VWS V14.00,2013-08-22 06:58:00,
2013-08-22 03:00:00,70.5,61.3,30.03,WSW,246,3.0,7.0,73,0.00,,SCT,0.00,VWS V14.00,2013-08-22 07:00:00,
2013-08-22 03:03:00,70.7,60.9,30.02,South,179,4.7,6.6,71,0.00,,SKC,0.00,VWS V14.00,2013-08-22 07:03:00,
2013-08-22 03:08:00,70.6,60.9,30.02,SSW,208,1.3,6.6,71,0.00,,SKC,0.00,VWS V14.00,2013-08-22 07:08:00,
2013-08-22 03:13:00,70.5,60.8,30.02,SW,235,3.3,7.0,72,0.00,,SKC,0.00,VWS V14.00,2013-08-22 07:13:00,
2013-08-22 03:18:00,70.4,60.8,30.02,SW,217,2.7,7.0,72,0.00,,SKC,0.00,VWS V14.00,2013-08-22 07:18:00,
2013-08-22 03:23:00,70.4,60.9,30.02,WSW,246,3.6,7.0,72,0.00,,SKC,0.00,VWS V14.00,2013-08-22 07:23:00,
2013-08-22 03:28:00,70.2,60.7,30.01,WSW,249,2.0,4.0,72,0.00,,SKC,0.00,VWS V14.00,2013-08-22 07:28:00,
2013-08-22 03:30:00,70.6,61.2,30.03,WSW,243,3.5,8.0,72,0.00,,SCT,0.00,VWS V14.00,2013-08-22 07:30:00,
2013-08-22 03:33:00,70.0,60.7,30.01,SW,233,2.1,6.3,72,0.00,,SKC,0.00,VWS V14.00,2013-08-22 07:33:00,
2013-08-22 03:38:00,69.8,60.7,30.01,SSE,163,6.0,6.5,73,0.00,,SKC,0.00,VWS V14.00,2013-08-22 07:38:00,
2013-08-22 03:43:00,69.6,60.6,30.01,SSW,212,5.1,6.5,73,0.00,,SKC,0.00,VWS V14.00,2013-08-22 07:43:00,
2013-08-22 03:48:00,69.6,60.7,30.00,South,186,3.5,6.6,73,0.00,,SKC,0.00,VWS V14.00,2013-08-22 07:48:00,
2013-08-22 03:53:00,69.4,60.6,30.00,SSE,158,4.9,6.6,74,0.00,,SKC,0.00,VWS V14.00,2013-08-22 07:53:00,
2013-08-22 03:58:00,69.4,60.7,30.00,SSE,166,2.7,3.7,74,0.00,,SKC,0.00,VWS V14.00,2013-08-22 07:58:00,
2013-08-22 04:00:00,70.9,61.0,30.02,WSW,243,2.6,7.9,71,0.00,,SCT,0.00,VWS V14.00,2013-08-22 08:00:00,
2013-08-22 04:03:00,69.0,60.5,30.00,South,180,3.5,5.4,74,0.00,,SKC,0.00,VWS V14.00,2013-08-22 08:03:00,
2013-08-22 04:08:00,68.8,60.4,30.00,SSW,207,2.0,5.6,74,0.00,,SKC,0.00,VWS V14.00,2013-08-22 08:08:00,
2013-08-22 04:13:00,68.6,60.3,30.00,SSW,212,2.1,5.6,75,0.00,,SKC,0.00,VWS V14.00,2013-08-22 08:13:00,
2013-08-22 04:18:00,68.5,60.3,29.99,SW,235,1.6,5.6,75,0.00,,SKC,0.00,VWS V14.00,2013-08-22 08:18:00,
2013-08-22 04:23:00,68.5,60.4,29.99,South,184,2.2,5.6,75,0.00,,SKC,0.00,VWS V14.00,2013-08-22 08:23:00,
2013-08-22 04:28:00,68.4,60.4,29.99,SSW,193,2.2,4.7,76,0.00,,SKC,0.00,VWS V14.00,2013-08-22 08:28:00,
2013-08-22 04:30:00,70.2,60.7,30.02,SW,222,3.3,7.3,72,0.00,,SCT,0.00,VWS V14.00,2013-08-22 08:30:00,
2013-08-22 04:33:00,68.2,60.2,29.99,WSW,238,2.7,4.7,76,0.00,,SKC,0.00,VWS V14.00,2013-08-22 08:33:00,
2013-08-22 04:38:00,68.1,60.3,29.99,SW,228,3.8,4.7,76,0.00,,SKC,0.00,VWS V14.00,2013-08-22 08:38:00,
2013-08-22 04:43:00,67.9,60.2,29.99,WSW,242,1.9,4.7,76,0.00,,SKC,0.00,VWS V14.00,2013-08-22 08:43:00,
2013-08-22 04:48:00,67.9,60.2,29.99,SW,229,1.8,4.7,76,0.00,,SKC,0.00,VWS V14.00,2013-08-22 08:48:00,
2013-08-22 04:53:00,67.9,60.4,29.98,SSW,200,2.5,4.9,77,0.00,,SKC,0.00,VWS V14.00,2013-08-22 08:53:00,
2013-08-22 04:58:00,67.8,60.3,29.98,WSW,255,2.5,2.9,77,0.00,,SKC,0.00,VWS V14.00,2013-08-22 08:58:00,
2013-08-22 05:00:00,69.4,60.6,30.00,WSW,245,2.8,6.6,74,0.00,,SCT,0.00,VWS V14.00,2013-08-22 09:00:00,
2013-08-22 05:03:00,67.8,60.3,29.98,SW,224,2.1,3.7,77,0.00,,SKC,0.00,VWS V14.00,2013-08-22 09:03:00,
2013-08-22 05:08:00,67.8,60.3,29.98,SW,228,2.7,5.1,77,0.00,,SKC,0.00,VWS V14.00,2013-08-22 09:08:00,
2013-08-22 05:13:00,67.9,60.3,29.98,West,259,1.6,5.1,77,0.00,,SKC,0.00,VWS V14.00,2013-08-22 09:13:00,
2013-08-22 05:18:00,67.8,60.3,29.98,WSW,245,2.0,5.2,77,0.00,,SKC,0.00,VWS V14.00,2013-08-22 09:18:00,
2013-08-22 05:23:00,67.9,60.2,29.99,South,180,3.4,5.2,76,0.00,,SKC,0.00,VWS V14.00,2013-08-22 09:23:00,
2013-08-22 05:28:00,68.0,60.3,29.99,SW,217,0.9,6.5,76,0.00,,SKC,0.00,VWS V14.00,2013-08-22 09:28:00,
2013-08-22 05:30:00,68.5,60.5,29.99,SW,225,2.2,5.6,76,0.00,,SCT,0.00,VWS V14.00,2013-08-22 09:30:00,
2013-08-22 05:33:00,67.9,60.2,29.99,SW,218,1.9,6.5,76,0.00,,SKC,0.00,VWS V14.00,2013-08-22 09:33:00,
2013-08-22 05:38:00,67.9,60.3,29.98,SW,221,1.7,6.5,77,0.00,,SKC,0.00,VWS V14.00,2013-08-22 09:38:00,
2013-08-22 05:43:00,67.8,60.2,29.98,SSW,205,3.5,6.5,77,0.00,,SKC,0.00,VWS V14.00,2013-08-22 09:43:00,
2013-08-22 05:48:00,67.8,60.2,29.98,South,191,3.4,6.5,77,0.00,,SKC,0.00,VWS V14.00,2013-08-22 09:48:00,
2013-08-22 05:53:00,67.7,60.2,29.98,South,173,3.5,6.5,77,0.00,,SKC,0.00,VWS V14.00,2013-08-22 09:53:00,
2013-08-22 05:58:00,67.7,60.2,29.98,SSW,204,3.0,6.4,77,0.00,,SKC,0.00,VWS V14.00,2013-08-22 09:58:00,
2013-08-22 06:00:00,67.7,60.2,29.98,SSW,197,2.5,4.9,77,0.00,,SCT,0.00,VWS V14.00,2013-08-22 10:00:00,
2013-08-22 06:03:00,67.6,60.1,29.97,SW,232,1.4,6.4,77,0.00,,SKC,0.00,VWS V14.00,2013-08-22 10:03:00,
2013-08-22 06:08:00,67.6,60.1,29.98,SW,228,2.5,6.4,77,0.00,,SKC,0.00,VWS V14.00,2013-08-22 10:08:00,
2013-08-22 06:13:00,67.7,60.2,29.98,WSW,253,1.2,6.4,77,0.00,,SKC,0.00,VWS V14.00,2013-08-22 10:13:00,
2013-08-22 06:18:00,67.7,60.2,29.98,SW,221,3.1,6.4,77,0.00,,SKC,0.00,VWS V14.00,2013-08-22 10:18:00,
2013-08-22 06:23:00,67.8,60.2,29.98,SW,217,3.6,6.9,76,0.00,,SKC,0.00,VWS V14.00,2013-08-22 10:23:00,
2013-08-22 06:28:00,68.0,60.2,29.98,South,174,4.0,9.0,76,0.00,,SKC,0.00,VWS V14.00,2013-08-22 10:28:00,
2013-08-22 06:30:00,67.8,60.2,29.98,SSW,200,1.6,5.2,76,0.00,,SCT,0.00,VWS V14.00,2013-08-22 10:30:00,
2013-08-22 06:33:00,68.1,60.2,29.98,SSW,200,2.9,9.0,76,0.00,,SKC,0.00,VWS V14.00,2013-08-22 10:33:00,
2013-08-22 06:38:00,68.5,60.2,29.98,SSW,211,2.2,9.0,75,0.00,,SKC,0.00,VWS V14.00,2013-08-22 10:38:00,
2013-08-22 06:43:00,68.6,60.0,29.97,SSE,166,5.7,9.0,74,0.00,,SKC,0.00,VWS V14.00,2013-08-22 10:43:00,
2013-08-22 06:48:00,69.0,60.2,29.98,SSW,207,2.8,9.0,73,0.00,,SKC,0.00,VWS V14.00,2013-08-22 10:48:00,
2013-08-22 07:00:00,67.7,60.2,29.98,SSW,204,5.4,6.5,77,0.00,,SCT,0.00,VWS V14.00,2013-08-22 11:00:00,
2013-08-22 07:30:00,67.9,60.2,29.98,SW,232,1.7,6.9,76,0.00,,SCT,0.00,VWS V14.00,2013-08-22 11:30:00,
2013-08-22 08:00:00,69.1,60.1,29.98,SW,236,4.2,9.0,73,0.00,,SCT,0.00,VWS V14.00,2013-08-22 12:00:00,
2013-08-22 08:30:00,70.0,60.6,29.99,SSW,202,3.6,8.4,72,0.00,,SCT,0.00,VWS V14.00,2013-08-22 12:30:00,
2013-08-22 08:31:00,71.9,61.6,29.99,West,269,3.7,9.3,70,0.00,,SCT,0.00,VWS V14.00,2013-08-22 12:31:00,
2013-08-22 08:36:00,72.3,62.1,29.99,SW,226,3.4,9.3,70,0.00,,SCT,0.00,VWS V14.00,2013-08-22 12:36:00,
2013-08-22 08:41:00,72.4,61.9,29.99,SW,231,6.3,9.3,70,0.00,,SCT,0.00,VWS V14.00,2013-08-22 12:41:00,
2013-08-22 08:46:00,72.4,62.0,29.99,SW,232,4.8,11.6,70,0.00,,SCT,0.00,VWS V14.00,2013-08-22 12:46:00,
2013-08-22 08:51:00,72.5,62.0,29.99,SSW,207,3.2,11.6,70,0.00,,SCT,0.00,VWS V14.00,2013-08-22 12:51:00,
2013-08-22 08:56:00,72.6,62.1,29.99,West,260,1.4,4.0,70,0.00,,SCT,0.00,VWS V14.00,2013-08-22 12:56:00,
2013-08-22 09:00:00,71.1,61.0,30.00,South,183,3.5,9.4,70,0.00,,SCT,0.00,VWS V14.00,2013-08-22 13:00:00,
2013-08-22 09:01:00,72.6,62.1,29.99,SW,235,5.3,13.5,70,0.00,,SCT,0.00,VWS V14.00,2013-08-22 13:01:00,
2013-08-22 09:06:00,72.6,62.3,30.00,WSW,252,2.1,13.5,70,0.00,,SCT,0.00,VWS V14.00,2013-08-22 13:06:00,
2013-08-22 09:11:00,72.5,62.5,29.99,WSW,256,1.9,13.5,71,0.00,,SCT,0.00,VWS V14.00,2013-08-22 13:11:00,
2013-08-22 09:16:00,72.4,62.6,30.00,WNW,285,2.9,13.5,71,0.00,,SCT,0.00,VWS V14.00,2013-08-22 13:16:00,
2013-08-22 09:21:00,72.5,62.7,30.00,West,267,2.1,13.5,71,0.00,,SCT,0.00,VWS V14.00,2013-08-22 13:21:00,
2013-08-22 09:26:00,72.5,62.8,30.00,WSW,250,2.0,2.9,72,0.00,,SCT,0.00,VWS V14.00,2013-08-22 13:26:00,
2013-08-22 09:30:00,71.6,61.4,30.00,WSW,238,2.7,8.8,70,0.00,,SCT,0.00,VWS V14.00,2013-08-22 13:30:00,
2013-08-22 09:31:00,72.5,62.8,30.00,WNW,287,2.5,4.3,72,0.00,,SCT,0.00,VWS V14.00,2013-08-22 13:31:00,
2013-08-22 09:36:00,72.5,63.0,30.00,WSW,240,3.5,5.0,72,0.00,,SCT,0.00,VWS V14.00,2013-08-22 13:36:00,
2013-08-22 09:41:00,72.6,63.4,29.99,SW,221,2.6,5.0,73,0.00,,SCT,0.00,VWS V14.00,2013-08-22 13:41:00,
2013-08-22 09:46:00,73.2,63.7,29.99,WSW,242,2.4,5.0,72,0.00,,SCT,0.00,VWS V14.00,2013-08-22 13:46:00,
2013-08-22 09:51:00,73.5,63.6,29.99,WSW,240,4.2,5.4,71,0.00,,SCT,0.00,VWS V14.00,2013-08-22 13:51:00,
2013-08-22 09:56:00,73.5,63.5,29.99,West,276,3.0,4.5,71,0.00,,SCT,0.00,VWS V14.00,2013-08-22 13:56:00,
2013-08-22 10:00:00,72.6,62.2,29.99,West,277,3.7,11.6,70,0.00,,SCT,0.00,VWS V14.00,2013-08-22 14:00:00,
2013-08-22 10:01:00,73.6,63.7,29.99,WSW,253,3.0,4.5,71,0.00,,SCT,0.00,VWS V14.00,2013-08-22 14:01:00,
2013-08-22 10:06:00,73.7,64.0,29.99,SW,231,1.0,6.1,72,0.00,,SCT,0.00,VWS V14.00,2013-08-22 14:06:00,
2013-08-22 10:11:00,74.0,64.1,29.99,SW,232,1.4,6.1,71,0.00,,SCT,0.00,VWS V14.00,2013-08-22 14:11:00,
2013-08-22 10:16:00,74.4,64.0,29.99,West,278,2.5,6.1,70,0.00,,SCT,0.00,VWS V14.00,2013-08-22 14:16:00,
2013-08-22 10:21:00,74.8,64.4,29.98,WSW,245,1.0,6.5,70,0.00,,SCT,0.00,VWS V14.00,2013-08-22 14:21:00,
2013-08-22 10:26:00,75.1,64.2,29.98,West,274,1.8,3.5,69,0.00,,SCT,0.00,VWS V14.00,2013-08-22 14:26:00,
2013-08-22 10:30:00,72.6,63.0,30.00,WSW,252,2.5,13.5,72,0.00,,SCT,0.00,VWS V14.00,2013-08-22 14:30:00,
2013-08-22 10:31:00,75.3,64.4,29.98,WSW,255,2.7,5.3,69,0.00,,SCT,0.00,VWS V14.00,2013-08-22 14:31:00,
2013-08-22 10:36:00,75.9,64.8,29.98,SW,233,2.4,7.3,68,0.00,,SCT,0.00,VWS V14.00,2013-08-22 14:36:00,
2013-08-22 10:41:00,76.1,64.9,29.98,West,267,3.4,7.3,68,0.00,,SCT,0.00,VWS V14.00,2013-08-22 14:41:00,
2013-08-22 10:46:00,76.6,65.4,29.98,WSW,238,1.7,7.3,68,0.00,,SCT,0.00,VWS V14.00,2013-08-22 14:46:00,
2013-08-22 10:51:00,76.8,65.2,29.98,SSW,204,3.4,8.8,68,0.00,,SCT,0.00,VWS V14.00,2013-08-22 14:51:00,
2013-08-22 10:56:00,77.1,66.0,29.98,WNW,298,5.2,8.2,69,0.00,,SCT,0.00,VWS V14.00,2013-08-22 14:56:00,
2013-08-22 11:00:00,73.5,63.4,29.99,WSW,248,1.2,5.5,71,0.00,,SCT,0.00,VWS V14.00,2013-08-22 15:00:00,
2013-08-22 11:01:00,76.9,65.4,29.98,SW,214,6.3,8.2,68,0.00,,SCT,0.00,VWS V14.00,2013-08-22 15:01:00,
2013-08-22 11:06:00,76.7,64.8,29.98,WNW,285,4.0,8.2,67,0.00,,SCT,0.00,VWS V14.00,2013-08-22 15:06:00,
2013-08-22 11:11:00,76.7,65.6,29.98,West,278,2.7,8.2,69,0.00,,SCT,0.00,VWS V14.00,2013-08-22 15:11:00,
2013-08-22 11:16:00,76.8,65.4,29.98,West,264,2.3,8.2,68,0.00,,SCT,0.00,VWS V14.00,2013-08-22 15:16:00,
2013-08-22 11:21:00,76.3,65.3,29.98,WSW,239,1.2,8.2,69,0.00,,SCT,0.00,VWS V14.00,2013-08-22 15:21:00,
2013-08-22 11:26:00,76.0,65.4,29.98,WSW,256,2.0,2.7,70,0.00,,SCT,0.00,VWS V14.00,2013-08-22 15:26:00,
2013-08-22 11:30:00,74.9,63.7,29.98,WSW,248,1.0,7.1,68,0.00,,SCT,0.00,VWS V14.00,2013-08-22 15:30:00,
2013-08-22 11:31:00,76.0,65.6,29.98,SSW,204,1.8,4.6,70,0.00,,SCT,0.00,VWS V14.00,2013-08-22 15:31:00,
2013-08-22 11:36:00,75.7,65.4,29.98,WSW,242,5.3,5.3,70,0.00,,SCT,0.00,VWS V14.00,2013-08-22 15:36:00,
2013-08-22 11:42:00,75.5,65.4,29.97,West,264,2.4,5.8,71,0.00,,SCT,0.00,VWS V14.00,2013-08-22 15:42:00,
2013-08-22 11:47:00,75.7,65.7,29.97,WSW,253,1.7,5.8,71,0.00,,OVC,0.00,VWS V14.00,2013-08-22 15:47:00,
2013-08-22 11:52:00,75.5,65.7,29.97,West,280,1.2,5.8,72,0.00,,OVC,0.00,VWS V14.00,2013-08-22 15:52:00,
2013-08-22 11:57:00,75.6,66.0,29.97,West,260,1.1,1.7,72,0.00,,OVC,0.00,VWS V14.00,2013-08-22 15:57:00,
2013-08-22 12:00:00,77.0,65.6,29.98,WSW,256,0.0,8.8,68,0.00,,SCT,0.00,VWS V14.00,2013-08-22 16:00:00,
2013-08-22 12:02:00,75.5,66.2,29.97,WSW,256,0.8,1.8,73,0.00,,OVC,0.00,VWS V14.00,2013-08-22 16:02:00,
2013-08-22 12:07:00,75.4,66.4,29.96,SW,235,1.4,4.9,74,0.01,,OVC,0.01,VWS V14.00,2013-08-22 16:07:00,
2013-08-22 12:12:00,74.9,66.6,29.96,SSW,204,0.0,4.9,75,0.01,,OVC,0.01,VWS V14.00,2013-08-22 16:12:00,
2013-08-22 12:17:00,74.6,68.0,29.96,WNW,301,2.7,4.9,80,0.03,,OVC,0.05,VWS V14.00,2013-08-22 16:17:00,
2013-08-22 12:22:00,71.7,67.3,29.98,West,274,12.6,17.5,86,0.11,,OVC,0.12,VWS V14.00,2013-08-22 16:22:00,
2013-08-22 12:27:00,69.0,65.0,29.98,West,280,5.0,10.6,87,0.19,,OVC,0.22,VWS V14.00,2013-08-22 16:27:00,
2013-08-22 12:30:00,76.0,65.2,29.98,West,278,2.1,8.2,69,0.00,,SCT,0.00,VWS V14.00,2013-08-22 16:30:00,
2013-08-22 12:32:00,67.7,63.5,29.96,West,262,2.2,10.6,86,0.33,,OVC,0.39,VWS V14.00,2013-08-22 16:32:00,
2013-08-22 12:37:00,66.9,63.5,29.95,South,172,6.5,10.6,89,0.42,,OVC,0.49,VWS V14.00,2013-08-22 16:37:00,
2013-08-22 12:42:00,67.1,63.9,29.95,South,179,4.4,10.6,90,0.38,,OVC,0.49,VWS V14.00,2013-08-22 16:42:00,
2013-08-22 12:47:00,67.3,64.2,29.95,SSW,204,0.0,10.6,90,0.35,,OVC,0.49,VWS V14.00,2013-08-22 16:47:00,
2013-08-22 12:52:00,67.8,64.8,29.96,SSW,204,0.0,10.6,90,0.32,,OVC,0.49,VWS V14.00,2013-08-22 16:52:00,
2013-08-22 12:57:00,68.0,65.0,29.96,ESE,108,1.3,2.2,90,0.30,,OVC,0.49,VWS V14.00,2013-08-22 16:57:00,
2013-08-22 13:00:00,75.6,65.9,29.97,WSW,253,1.6,5.8,72,0.00,,SCT,0.00,VWS V14.00,2013-08-22 17:00:00,
2013-08-22 13:02:00,68.0,65.0,29.95,ENE,76,0.0,2.2,90,0.27,,OVC,0.49,VWS V14.00,2013-08-22 17:02:00,
2013-08-22 13:07:00,68.1,65.2,29.95,SE,127,0.0,2.2,90,0.25,,OVC,0.49,VWS V14.00,2013-08-22 17:07:00,
2013-08-22 13:12:00,68.2,65.3,29.95,SE,127,0.0,2.2,90,0.24,,OVC,0.50,VWS V14.00,2013-08-22 17:12:00,
2013-08-22 13:17:00,68.4,65.5,29.95,SE,127,0.0,2.2,90,0.22,,OVC,0.50,VWS V14.00,2013-08-22 17:17:00,
2013-08-22 13:22:00,68.2,65.4,29.96,SE,127,0.0,2.2,91,0.21,,OVC,0.50,VWS V14.00,2013-08-22 17:22:00,
2013-08-22 13:27:00,68.3,65.6,29.96,SE,139,0.0,1.4,91,0.20,,OVC,0.51,VWS V14.00,2013-08-22 17:27:00,
2013-08-22 13:30:00,69.4,65.0,29.98,NW,307,10.6,21.2,86,0.17,,SCT,0.19,VWS V14.00,2013-08-22 17:30:00,
2013-08-22 13:32:00,68.5,65.9,29.96,SE,139,0.0,1.4,91,0.18,,OVC,0.51,VWS V14.00,2013-08-22 17:32:00,
2013-08-22 13:37:00,68.5,66.1,29.96,South,184,2.5,4.2,92,0.17,,OVC,0.51,VWS V14.00,2013-08-22 17:37:00,
2013-08-22 13:42:00,68.9,66.5,29.96,SSE,149,0.0,4.2,92,0.15,,OVC,0.51,VWS V14.00,2013-08-22 17:42:00,
2013-08-22 13:47:00,69.2,66.9,29.97,SW,221,2.9,6.5,92,0.14,,OVC,0.51,VWS V14.00,2013-08-22 17:47:00,
2013-08-22 13:52:00,69.3,67.2,29.96,SSW,194,5.7,8.3,93,0.13,,OVC,0.51,VWS V14.00,2013-08-22 17:52:00,
2013-08-22 13:57:00,68.9,66.5,29.96,SW,224,2.1,6.7,92,0.12,,OVC,0.51,VWS V14.00,2013-08-22 17:57:00,
2013-08-22 14:00:00,67.9,64.9,29.96,SSW,204,0.0,10.6,90,0.30,,SCT,0.49,VWS V14.00,2013-08-22 18:00:00,
2013-08-22 14:02:00,68.4,66.0,29.96,South,191,0.8,6.7,92,0.11,,OVC,0.51,VWS V14.00,2013-08-22 18:02:00,
2013-08-22 14:07:00,68.4,66.1,29.95,SSE,163,0.0,6.7,92,0.10,,OVC,0.51,VWS V14.00,2013-08-22 18:07:00,
2013-08-22 14:12:00,68.2,66.0,29.95,SSW,204,1.8,6.7,93,0.09,,OVC,0.51,VWS V14.00,2013-08-22 18:12:00,
2013-08-22 14:17:00,68.5,66.3,29.95,WSW,256,2.1,6.7,93,0.09,,OVC,0.51,VWS V14.00,2013-08-22 18:17:00,
2013-08-22 14:22:00,68.6,66.4,29.95,SW,224,1.7,6.7,93,0.08,,OVC,0.51,VWS V14.00,2013-08-22 18:22:00,
2013-08-22 14:27:00,68.5,66.3,29.94,SW,225,1.2,3.2,93,0.07,,OVC,0.51,VWS V14.00,2013-08-22 18:27:00,
2013-08-22 14:30:00,68.3,65.6,29.96,SSE,152,1.0,2.2,91,0.19,,SCT,0.50,VWS V14.00,2013-08-22 18:30:00,
2013-08-22 14:32:00,68.7,66.5,29.94,SSW,201,0.0,3.2,93,0.07,,OVC,0.51,VWS V14.00,2013-08-22 18:32:00,
2013-08-22 14:37:00,68.4,66.2,29.94,South,186,0.0,3.2,92,0.06,,OVC,0.51,VWS V14.00,2013-08-22 18:37:00,
2013-08-22 14:42:00,68.6,66.4,29.94,South,177,0.0,3.2,93,0.06,,OVC,0.51,VWS V14.00,2013-08-22 18:42:00,
2013-08-22 14:47:00,68.6,66.4,29.94,South,177,0.0,3.2,93,0.05,,OVC,0.51,VWS V14.00,2013-08-22 18:47:00,
2013-08-22 14:52:00,68.6,66.4,29.94,WNW,301,0.0,4.3,93,0.06,,OVC,0.52,VWS V14.00,2013-08-22 18:52:00,
2013-08-22 14:57:00,68.4,66.2,29.94,SW,236,1.5,2.9,93,0.05,,OVC,0.52,VWS V14.00,2013-08-22 18:57:00,
2013-08-22 15:00:00,69.1,66.8,29.96,South,177,6.4,8.8,92,0.12,,SCT,0.51,VWS V14.00,2013-08-22 19:00:00,
2013-08-22 15:02:00,68.5,66.3,29.94,South,177,1.1,2.9,93,0.06,,OVC,0.53,VWS V14.00,2013-08-22 19:02:00,
2013-08-22 15:07:00,68.7,66.6,29.94,ESE,120,0.4,2.9,93,0.06,,OVC,0.54,VWS V14.00,2013-08-22 19:07:00,
2013-08-22 15:12:00,68.8,66.7,29.94,ESE,120,0.0,2.9,93,0.06,,OVC,0.54,VWS V14.00,2013-08-22 19:12:00,
2013-08-22 15:17:00,68.9,66.8,29.94,ESE,120,0.0,2.9,93,0.05,,OVC,0.54,VWS V14.00,2013-08-22 19:17:00,
2013-08-22 15:22:00,69.0,66.9,29.93,ESE,120,0.0,2.9,93,0.05,,OVC,0.54,VWS V14.00,2013-08-22 19:22:00,
2013-08-22 15:27:00,69.0,66.9,29.93,ESE,120,0.0,0.0,93,0.05,,OVC,0.54,VWS V14.00,2013-08-22 19:27:00,
2013-08-22 15:30:00,68.4,66.2,29.94,South,179,2.9,6.7,93,0.07,,SCT,0.51,VWS V14.00,2013-08-22 19:30:00,
2013-08-22 15:32:00,68.9,66.8,29.93,SW,218,0.0,0.9,93,0.04,,OVC,0.54,VWS V14.00,2013-08-22 19:32:00,
2013-08-22 15:37:00,68.9,66.8,29.94,South,187,0.0,3.7,93,0.04,,OVC,0.54,VWS V14.00,2013-08-22 19:37:00,
2013-08-22 15:42:00,68.5,66.4,29.94,WSW,246,0.0,3.7,93,0.04,,OVC,0.55,VWS V14.00,2013-08-22 19:42:00,
2013-08-22 15:47:00,68.4,66.3,29.93,SSE,167,0.0,3.7,93,0.04,,OVC,0.55,VWS V14.00,2013-08-22 19:47:00,
2013-08-22 15:52:00,68.5,66.4,29.94,SSE,167,0.0,3.7,93,0.04,,OVC,0.55,VWS V14.00,2013-08-22 19:52:00,
2013-08-22 15:57:00,68.4,66.4,29.94,SSE,167,0.0,0.0,93,0.04,,OVC,0.56,VWS V14.00,2013-08-22 19:57:00,
2013-08-22 16:00:00,68.5,66.3,29.94,SSW,200,2.8,4.3,93,0.05,,SCT,0.52,VWS V14.00,2013-08-22 20:00:00,
2013-08-22 16:02:00,68.4,66.5,29.94,SSE,167,0.0,0.0,94,0.05,,OVC,0.57,VWS V14.00,2013-08-22 20:02:00,
2013-08-22 16:07:00,68.5,66.6,29.93,SSE,148,0.0,2.2,94,0.12,,OVC,0.65,VWS V14.00,2013-08-22 20:07:00,
2013-08-22 16:12:00,68.4,66.5,29.93,SSE,159,0.0,2.2,94,0.13,,OVC,0.67,VWS V14.00,2013-08-22 20:12:00,
2013-08-22 16:17:00,68.5,66.6,29.93,SSW,197,0.0,5.7,94,0.12,,OVC,0.67,VWS V14.00,2013-08-22 20:17:00,
2013-08-22 16:22:00,68.4,66.5,29.93,SE,135,0.0,5.7,94,0.11,,OVC,0.67,VWS V14.00,2013-08-22 20:22:00,
2013-08-22 16:27:00,68.4,66.6,29.92,SSE,152,2.3,5.0,94,0.10,,OVC,0.67,VWS V14.00,2013-08-22 20:27:00,
2013-08-22 16:30:00,69.0,66.9,29.93,ESE,120,0.0,2.9,93,0.05,,SCT,0.54,VWS V14.00,2013-08-22 20:30:00,
2013-08-22 16:32:00,68.5,66.7,29.93,South,174,0.0,5.1,94,0.09,,OVC,0.67,VWS V14.00,2013-08-22 20:32:00,
2013-08-22 16:37:00,68.5,66.7,29.93,South,174,0.0,5.1,94,0.09,,OVC,0.67,VWS V14.00,2013-08-22 20:37:00,
2013-08-22 16:42:00,68.6,66.8,29.93,South,184,3.5,5.1,94,0.08,,OVC,0.67,VWS V14.00,2013-08-22 20:42:00,
2013-08-22 16:47:00,68.7,66.9,29.93,SW,232,1.9,6.6,94,0.07,,OVC,0.67,VWS V14.00,2013-08-22 20:47:00,
2013-08-22 16:52:00,68.8,67.0,29.92,West,276,2.6,6.6,94,0.07,,OVC,0.67,VWS V14.00,2013-08-22 20:52:00,
2013-08-22 16:57:00,69.1,67.3,29.93,SW,228,0.0,5.4,94,0.06,,OVC,0.67,VWS V14.00,2013-08-22 20:57:00,
2013-08-22 17:00:00,68.4,66.4,29.94,SSE,167,0.0,3.7,93,0.04,,SCT,0.55,VWS V14.00,2013-08-22 21:00:00,
2013-08-22 17:02:00,69.1,67.3,29.93,WSW,255,1.4,5.4,94,0.06,,OVC,0.67,VWS V14.00,2013-08-22 21:02:00,
2013-08-22 17:07:00,69.2,67.4,29.93,SSW,205,0.0,5.4,94,0.05,,OVC,0.67,VWS V14.00,2013-08-22 21:07:00,
2013-08-22 17:12:00,68.9,67.1,29.94,SW,233,1.7,5.4,94,0.05,,OVC,0.67,VWS V14.00,2013-08-22 21:12:00,
2013-08-22 17:17:00,68.8,67.0,29.94,SW,224,3.7,5.4,94,0.04,,OVC,0.67,VWS V14.00,2013-08-22 21:17:00,
2013-08-22 17:22:00,68.5,66.7,29.93,SW,221,4.4,6.0,94,0.07,,OVC,0.70,VWS V14.00,2013-08-22 21:22:00,
2013-08-22 17:27:00,68.5,66.7,29.93,SW,232,1.2,4.7,94,0.13,,OVC,0.77,VWS V14.00,2013-08-22 21:27:00,
2013-08-22 17:30:00,68.2,66.3,29.93,SE,141,2.1,5.7,94,0.11,,SCT,0.67,VWS V14.00,2013-08-22 21:30:00,
2013-08-22 17:32:00,68.4,66.6,29.93,WSW,243,0.0,4.7,94,0.15,,OVC,0.81,VWS V14.00,2013-08-22 21:32:00,
2013-08-22 17:37:00,68.5,66.8,29.92,SSW,198,0.0,4.7,94,0.16,,OVC,0.82,VWS V14.00,2013-08-22 21:37:00,
2013-08-22 17:42:00,68.4,66.7,29.92,SW,221,0.4,4.7,94,0.15,,OVC,0.83,VWS V14.00,2013-08-22 21:42:00,
2013-08-22 17:47:00,68.4,66.7,29.92,SW,221,0.0,4.7,94,0.15,,OVC,0.84,VWS V14.00,2013-08-22 21:47:00,
2013-08-22 17:52:00,68.4,66.8,29.92,SW,221,0.0,4.7,94,0.14,,OVC,0.84,VWS V14.00,2013-08-22 21:52:00,
2013-08-22 17:57:00,68.2,66.6,29.93,WSW,238,0.0,2.2,95,0.13,,OVC,0.84,VWS V14.00,2013-08-22 21:57:00,
2013-08-22 18:00:00,68.9,67.1,29.93,SSW,210,4.6,6.6,94,0.06,,SCT,0.67,VWS V14.00,2013-08-22 22:00:00,
2013-08-22 18:02:00,68.3,66.7,29.93,WSW,246,0.0,3.5,95,0.12,,OVC,0.84,VWS V14.00,2013-08-22 22:02:00,
2013-08-22 18:07:00,68.1,66.5,29.92,SSE,155,1.6,6.9,95,0.12,,OVC,0.85,VWS V14.00,2013-08-22 22:07:00,
2013-08-22 18:12:00,68.0,66.4,29.92,SSW,205,0.0,6.9,95,0.11,,OVC,0.85,VWS V14.00,2013-08-22 22:12:00,
2013-08-22 18:17:00,67.9,66.3,29.92,SW,236,1.1,6.9,95,0.10,,OVC,0.85,VWS V14.00,2013-08-22 22:17:00,
2013-08-22 18:22:00,68.1,66.6,29.92,SSW,205,1.7,6.9,95,0.09,,OVC,0.85,VWS V14.00,2013-08-22 22:22:00,
2013-08-22 18:27:00,67.9,66.4,29.92,South,173,0.0,2.2,95,0.08,,OVC,0.85,VWS V14.00,2013-08-22 22:27:00,
2013-08-22 18:30:00,68.5,66.7,29.93,West,267,2.0,6.1,94,0.11,,SCT,0.74,VWS V14.00,2013-08-22 22:30:00,
2013-08-22 18:32:00,67.9,66.4,29.92,SW,218,0.0,3.4,95,0.08,,OVC,0.85,VWS V14.00,2013-08-22 22:32:00,
2013-08-22 18:37:00,67.8,66.3,29.92,SSE,148,0.0,3.4,95,0.07,,OVC,0.85,VWS V14.00,2013-08-22 22:37:00,
2013-08-22 18:42:00,68.0,66.5,29.92,WSW,242,0.9,3.5,95,0.07,,OVC,0.85,VWS V14.00,2013-08-22 22:42:00,
2013-08-22 18:47:00,67.9,66.4,29.92,SW,215,0.0,3.5,95,0.06,,OVC,0.85,VWS V14.00,2013-08-22 22:47:00,
2013-08-22 18:52:00,67.9,66.4,29.92,SW,215,0.0,3.5,95,0.06,,OVC,0.85,VWS V14.00,2013-08-22 22:52:00,
2013-08-22 18:57:00,68.0,66.5,29.93,South,186,0.0,0.0,95,0.05,,OVC,0.85,VWS V14.00,2013-08-22 22:57:00,
2013-08-22 19:00:00,68.4,66.8,29.93,WSW,256,1.0,4.7,94,0.13,,SCT,0.84,VWS V14.00,2013-08-22 23:00:00,
2013-08-22 19:02:00,67.9,66.4,29.93,South,186,0.0,0.0,95,0.05,,OVC,0.85,VWS V14.00,2013-08-22 23:02:00,
2013-08-22 19:07:00,67.9,66.4,29.93,South,186,0.0,0.0,95,0.04,,OVC,0.85,VWS V14.00,2013-08-22 23:07:00,
2013-08-22 19:13:00,67.9,66.4,29.93,South,186,0.0,0.0,95,0.04,,OVC,0.85,VWS V14.00,2013-08-22 23:13:00,
2013-08-22 19:18:00,68.0,66.5,29.93,South,186,0.0,0.0,95,0.04,,OVC,0.85,VWS V14.00,2013-08-22 23:18:00,
2013-08-22 19:23:00,67.8,66.3,29.93,South,186,0.0,0.0,95,0.03,,OVC,0.85,VWS V14.00,2013-08-22 23:23:00,
2013-08-22 19:28:00,67.9,66.4,29.94,South,186,0.0,0.0,95,0.03,,OVC,0.85,VWS V14.00,2013-08-22 23:28:00,
2013-08-22 19:30:00,68.0,66.5,29.92,WSW,253,1.7,6.9,95,0.09,,SCT,0.85,VWS V14.00,2013-08-22 23:30:00,
2013-08-22 19:33:00,67.7,66.2,29.94,South,186,0.0,0.0,95,0.03,,OVC,0.85,VWS V14.00,2013-08-22 23:33:00,
2013-08-22 19:38:00,67.7,66.2,29.94,SW,219,0.0,3.4,95,0.03,,OVC,0.85,VWS V14.00,2013-08-22 23:38:00,
2013-08-22 19:43:00,67.7,66.2,29.94,WSW,240,0.0,3.4,95,0.02,,OVC,0.85,VWS V14.00,2013-08-22 23:43:00,
2013-08-22 19:48:00,67.5,66.0,29.94,SW,236,0.0,3.4,95,0.02,,OVC,0.85,VWS V14.00,2013-08-22 23:48:00,
2013-08-22 19:53:00,67.5,66.1,29.95,SW,236,0.0,3.4,95,0.02,,OVC,0.85,VWS V14.00,2013-08-22 23:53:00,
2013-08-22 19:58:00,67.2,65.8,29.95,SW,236,0.0,0.0,95,0.02,,OVC,0.85,VWS V14.00,2013-08-22 23:58:00,
2013-08-22 20:00:00,68.0,66.5,29.92,South,186,0.0,3.5,95,0.05,,SCT,0.85,VWS V14.00,2013-08-23 00:00:00,
2013-08-22 20:03:00,67.3,65.8,29.95,SW,236,0.0,0.0,95,0.02,,OVC,0.85,VWS V14.00,2013-08-23 00:03:00,
2013-08-22 20:08:00,67.2,65.8,29.95,West,270,2.1,2.3,95,0.02,,OVC,0.85,VWS V14.00,2013-08-23 00:08:00,
2013-08-22 20:13:00,67.2,65.8,29.95,SW,228,0.0,3.4,95,0.01,,OVC,0.85,VWS V14.00,2013-08-23 00:13:00,
2013-08-22 20:18:00,67.2,65.8,29.96,SW,228,0.0,3.4,95,0.01,,OVC,0.85,VWS V14.00,2013-08-23 00:18:00,
2013-08-22 20:23:00,67.3,65.8,29.95,SW,231,0.0,3.4,95,0.01,,OVC,0.85,VWS V14.00,2013-08-23 00:23:00,
2013-08-22 20:28:00,67.3,65.8,29.96,SW,231,0.0,0.0,95,0.01,,OVC,0.85,VWS V14.00,2013-08-23 00:28:00,
2013-08-22 20:30:00,67.8,66.3,29.94,South,186,0.0,0.0,95,0.03,,SCT,0.85,VWS V14.00,2013-08-23 00:30:00,
2013-08-22 20:33:00,67.1,65.7,29.95,SSW,194,0.0,2.9,95,0.01,,OVC,0.85,VWS V14.00,2013-08-23 00:33:00,
2013-08-22 20:38:00,67.1,65.7,29.95,WSW,238,1.1,4.0,95,0.01,,OVC,0.85,VWS V14.00,2013-08-23 00:38:00,
2013-08-22 20:43:00,67.1,65.7,29.95,South,174,0.0,4.0,95,0.01,,OVC,0.85,VWS V14.00,2013-08-23 00:43:00,
2013-08-22 20:48:00,67.1,65.7,29.96,South,174,0.0,4.0,95,0.01,,OVC,0.85,VWS V14.00,2013-08-23 00:48:00,
2013-08-22 20:53:00,67.1,65.7,29.96,South,174,0.0,4.0,95,0.01,,OVC,0.85,VWS V14.00,2013-08-23 00:53:00,
2013-08-22 20:58:00,67.0,65.6,29.96,South,174,0.0,0.0,95,0.01,,OVC,0.85,VWS V14.00,2013-08-23 00:58:00,
2013-08-22 21:00:00,67.3,65.8,29.95,SW,236,0.0,3.4,95,0.02,,SCT,0.85,VWS V14.00,2013-08-23 01:00:00,
2013-08-22 21:03:00,66.8,65.4,29.96,South,174,0.0,0.0,95,0.01,,OVC,0.85,VWS V14.00,2013-08-23 01:03:00,
2013-08-22 21:08:00,66.9,65.5,29.97,South,174,0.0,0.0,95,0.01,,OVC,0.85,VWS V14.00,2013-08-23 01:08:00,
2013-08-22 21:13:00,66.7,65.3,29.97,South,174,0.0,0.0,95,0.01,,OVC,0.85,VWS V14.00,2013-08-23 01:13:00,
2013-08-22 21:18:00,66.7,65.3,29.97,South,174,0.0,0.0,95,0.00,,OVC,0.85,VWS V14.00,2013-08-23 01:18:00,
2013-08-22 21:23:00,66.9,65.5,29.97,South,174,0.0,0.0,95,0.00,,OVC,0.85,VWS V14.00,2013-08-23 01:23:00,
2013-08-22 21:28:00,66.9,65.5,29.97,South,174,0.0,0.0,95,0.00,,OVC,0.85,VWS V14.00,2013-08-23 01:28:00,
2013-08-22 21:30:00,67.2,65.8,29.96,SW,231,0.0,3.4,95,0.01,,SCT,0.85,VWS V14.00,2013-08-23 01:30:00,
2013-08-22 21:33:00,66.8,65.4,29.97,South,174,0.0,0.0,95,0.00,,OVC,0.85,VWS V14.00,2013-08-23 01:33:00,
2013-08-22 21:38:00,66.8,65.4,29.98,South,174,0.0,0.0,95,0.00,,OVC,0.85,VWS V14.00,2013-08-23 01:38:00,
2013-08-22 21:43:00,66.7,65.3,29.98,South,174,0.0,0.0,95,0.00,,OVC,0.85,VWS V14.00,2013-08-23 01:43:00,
2013-08-22 21:48:00,66.7,65.3,29.98,South,174,0.0,0.0,95,0.00,,OVC,0.85,VWS V14.00,2013-08-23 01:48:00,
2013-08-22 21:53:00,66.8,65.4,29.98,South,174,0.0,0.0,95,0.00,,OVC,0.85,VWS V14.00,2013-08-23 01:53:00,
2013-08-22 21:58:00,66.8,65.4,29.98,South,174,0.0,0.0,95,0.00,,OVC,0.85,VWS V14.00,2013-08-23 01:58:00,
2013-08-22 22:00:00,67.1,65.7,29.96,South,174,0.0,4.0,95,0.01,,SCT,0.85,VWS V14.00,2013-08-23 02:00:00,
2013-08-22 22:03:00,66.9,65.5,29.98,South,174,0.0,0.0,95,0.00,,OVC,0.85,VWS V14.00,2013-08-23 02:03:00,
2013-08-22 22:08:00,66.8,65.4,29.98,South,174,0.0,0.0,95,0.00,,OVC,0.85,VWS V14.00,2013-08-23 02:08:00,
2013-08-22 22:13:00,66.9,65.5,29.98,South,174,0.0,0.0,95,0.00,,OVC,0.85,VWS V14.00,2013-08-23 02:13:00,
2013-08-22 22:18:00,66.8,65.4,29.98,WSW,248,0.0,2.1,95,0.00,,OVC,0.85,VWS V14.00,2013-08-23 02:18:00,
2013-08-22 22:23:00,66.7,65.3,29.98,WSW,248,0.0,2.1,95,0.00,,OVC,0.85,VWS V14.00,2013-08-23 02:23:00,
2013-08-22 22:28:00,66.4,65.0,29.98,WSW,248,0.0,0.0,95,0.00,,OVC,0.85,VWS V14.00,2013-08-23 02:28:00,
2013-08-22 22:30:00,66.8,65.4,29.97,South,174,0.0,0.0,95,0.00,,SCT,0.85,VWS V14.00,2013-08-23 02:30:00,
2013-08-22 22:33:00,66.3,64.9,29.98,WSW,248,0.0,0.0,95,0.00,,OVC,0.85,VWS V14.00,2013-08-23 02:33:00,
2013-08-22 22:38:00,65.9,64.5,29.99,WSW,248,0.0,0.0,95,0.00,,OVC,0.85,VWS V14.00,2013-08-23 02:38:00,
2013-08-22 22:43:00,65.9,64.5,29.99,WSW,248,0.0,0.0,95,0.00,,OVC,0.85,VWS V14.00,2013-08-23 02:43:00,
2013-08-22 22:48:00,65.8,64.4,29.99,WSW,248,0.0,0.0,95,0.00,,OVC,0.85,VWS V14.00,2013-08-23 02:48:00,
2013-08-22 22:53:00,65.7,64.3,29.99,WSW,248,0.0,0.0,95,0.00,,OVC,0.85,VWS V14.00,2013-08-23 02:53:00,
2013-08-22 22:58:00,65.4,64.1,29.99,WSW,248,0.0,0.0,95,0.00,,OVC,0.85,VWS V14.00,2013-08-23 02:58:00,
2013-08-22 23:00:00,66.7,65.3,29.98,South,174,0.0,0.0,95,0.00,,SCT,0.85,VWS V14.00,2013-08-23 03:00:00,
2013-08-22 23:03:00,65.4,64.1,30.00,WSW,248,0.0,0.0,95,0.00,,OVC,0.85,VWS V14.00,2013-08-23 03:03:00,
2013-08-22 23:08:00,65.3,64.0,30.00,WSW,248,0.0,0.0,95,0.00,,OVC,0.85,VWS V14.00,2013-08-23 03:08:00,
2013-08-22 23:13:00,65.1,63.8,30.00,WSW,248,0.0,0.0,95,0.00,,OVC,0.85,VWS V14.00,2013-08-23 03:13:00,
2013-08-22 23:18:00,65.0,63.7,30.00,WSW,248,0.0,0.0,95,0.00,,OVC,0.85,VWS V14.00,2013-08-23 03:18:00,
2013-08-22 23:23:00,64.9,63.6,30.00,WSW,248,0.0,0.0,96,0.00,,OVC,0.85,VWS V14.00,2013-08-23 03:23:00,
2013-08-22 23:28:00,64.7,63.4,30.00,WSW,248,0.0,0.0,96,0.00,,OVC,0.85,VWS V14.00,2013-08-23 03:28:00,
2013-08-22 23:30:00,66.7,65.3,29.98,WSW,248,0.0,2.1,95,0.00,,SCT,0.85,VWS V14.00,2013-08-23 03:30:00,
2013-08-22 23:33:00,64.6,63.3,30.00,WSW,248,0.0,0.0,96,0.00,,OVC,0.85,VWS V14.00,2013-08-23 03:33:00,
2013-08-22 23:38:00,64.3,63.0,30.00,WSW,248,0.0,0.0,96,0.00,,OVC,0.85,VWS V14.00,2013-08-23 03:38:00,
2013-08-22 23:43:00,64.1,62.8,30.00,WSW,248,0.0,0.0,96,0.00,,OVC,0.85,VWS V14.00,2013-08-23 03:43:00,
2013-08-22 23:48:00,63.7,62.4,30.01,WSW,248,0.0,0.0,96,0.00,,OVC,0.85,VWS V14.00,2013-08-23 03:48:00,
2013-08-22 23:53:00,63.5,62.2,30.01,WSW,248,0.0,0.0,96,0.00,,OVC,0.85,VWS V14.00,2013-08-23 03:53:00,